Weather History for KBWI - March, 2013

Change the Weather History Date:

Thursday, March 14, 2013

  Actual Average Record
Temperature  
Mean Temperature 38 °F 43 °F  
Max Temperature 45 °F 53 °F 83 °F (2007)
Min Temperature 31 °F 33 °F 14 °F (1888)
Degree Days  
Heating Degree Days 27 22  
Month to date heating degree days 338 338  
Since 1 July heating degree days 3630 3933  
Cooling Degree Days 0 0  
Month to date cooling degree days 0 0  
Year to date cooling degree days 0 0  
Moisture  
Dew Point 16 °F    
Average Humidity 43    
Maximum Humidity 58    
Minimum Humidity 27    
Precipitation  
Precipitation 0.00 in 0.13 in 1.82 in (1940)
Month to date precipitation 1.39 1.63  
Year to date precipitation 6.98 7.58  
Snow  
Snow 0.00 in 0.00 in 5.80 in (1937)
Month to date snowfall T 1.3  
Since 1 July snowfall 4.8 19.5  
Snow Depth 0.00 in    
Sea Level Pressure  
Sea Level Pressure 30.05 in    
Wind  
Wind Speed 14 mph (WNW)    
Max Wind Speed 28 mph    
Max Gust Speed 37 mph    
Visibility 10 miles    
Events      
T = Trace of Precipitation, MM = Missing Value Source: NWS Daily Summary

Daily Weather History Graph

Daily Weather History Graph

Search for Another Location

Airport or City:

Trip Planner

Search our weather history database for the weather conditions in past years. The results will help you decide how hot, cold, wet, or windy it might be!

Date:

Astronomy

Mar. 14, 2013 Rise Set
Actual Time 7:19 AM EDT 7:12 PM EDT
Civil Twilight 6:52 AM EDT 7:39 PM EDT
Nautical Twilight 6:21 AM EDT 8:10 PM EDT
Astronomical Twilight 5:50 AM EDT 8:42 PM EDT
Moon 8:33 AM EDT (3/14) 10:25 PM EDT (3/14)
Length of Visible Light 12h 46m
Length of Day
11h 53m
Waxing Crescent, 9% of the Moon is Illuminated
Mar 14
Waxing Crescent
Mar 19
First Quarter
Mar 27
Full
Apr 3
Last Quarter
Apr 10
New

Hourly Weather History & Observations

Time (EDT) Temp. Windchill Dew Point Humidity Pressure Visibility Wind Dir Wind Speed Gust Speed Precip Events Conditions
12:54 AM 33.1 °F 21.5 °F 19.0 °F 56% 30.04 in 10.0 mi West 19.6 mph 24.2 mph N/A   Scattered Clouds
1:54 AM 33.8 °F 25.3 °F 17.6 °F 52% 30.04 in 10.0 mi West 11.5 mph 20.7 mph N/A   Mostly Cloudy
2:54 AM 33.1 °F 25.5 °F 18.0 °F 54% 30.05 in 10.0 mi West 9.2 mph - N/A   Scattered Clouds
3:54 AM 33.1 °F 22.6 °F 18.0 °F 54% 30.04 in 10.0 mi WNW 16.1 mph 21.9 mph N/A   Mostly Cloudy
4:54 AM 32.0 °F 23.6 °F 17.1 °F 54% 30.04 in 10.0 mi WNW 10.4 mph 20.7 mph N/A   Scattered Clouds
5:54 AM 30.9 °F 22.8 °F 17.1 °F 57% 30.05 in 10.0 mi West 9.2 mph - N/A   Scattered Clouds
6:54 AM 32.0 °F 22.1 °F 16.0 °F 52% 30.06 in 10.0 mi West 13.8 mph - N/A   Mostly Cloudy
7:54 AM 32.0 °F 22.1 °F 16.0 °F 52% 30.08 in 10.0 mi WNW 13.8 mph 21.9 mph N/A   Mostly Cloudy
8:54 AM 34.0 °F 23.4 °F 16.0 °F 48% 30.09 in 10.0 mi WNW 17.3 mph 24.2 mph N/A   Scattered Clouds
9:54 AM 36.0 °F 26.0 °F 16.0 °F 44% 30.10 in 10.0 mi WNW 17.3 mph 28.8 mph N/A   Scattered Clouds
10:54 AM 37.0 °F 26.2 °F 14.0 °F 39% 30.09 in 10.0 mi WNW 21.9 mph 36.8 mph N/A   Scattered Clouds
11:54 AM 37.9 °F 27.6 °F 16.0 °F 41% 30.08 in 10.0 mi West 20.7 mph 28.8 mph N/A   Scattered Clouds
12:54 PM 39.9 °F 31.1 °F 16.0 °F 38% 30.07 in 10.0 mi WNW 17.3 mph 27.6 mph N/A   Scattered Clouds
1:54 PM 42.1 °F 33.3 °F 16.0 °F 35% 30.04 in 10.0 mi West 19.6 mph 32.2 mph N/A   Partly Cloudy
2:54 PM 43.0 °F 34.0 °F 15.1 °F 32% 30.01 in 10.0 mi West 21.9 mph 34.5 mph N/A   Scattered Clouds
3:54 PM 44.1 °F 35.0 °F 12.9 °F 28% 30.00 in 10.0 mi WNW 24.2 mph 31.1 mph N/A   Partly Cloudy
4:54 PM 44.1 °F 36.8 °F 14.0 °F 30% 30.00 in 10.0 mi WNW 16.1 mph 28.8 mph N/A   Partly Cloudy
5:54 PM 43.0 °F 34.0 °F 10.9 °F 27% 30.00 in 10.0 mi WNW 21.9 mph 34.5 mph N/A   Partly Cloudy
6:54 PM 41.0 °F 33.5 °F 12.0 °F 31% 30.02 in 10.0 mi WNW 13.8 mph 24.2 mph N/A   Partly Cloudy
7:54 PM 39.0 °F 33.4 °F 14.0 °F 36% 30.04 in 10.0 mi WNW 8.1 mph - N/A   Clear
8:54 PM 37.0 °F 31.0 °F 15.1 °F 41% 30.06 in 10.0 mi West 8.1 mph - N/A   Clear
9:54 PM 37.9 °F 30.9 °F 14.0 °F 38% 30.06 in 10.0 mi WNW 10.4 mph 17.3 mph N/A   Clear
10:54 PM 36.0 °F 30.3 °F 15.1 °F 43% 30.07 in 10.0 mi WNW 6.9 mph - N/A   Clear
11:54 PM 35.1 °F 30.1 °F 16.0 °F 46% 30.07 in 10.0 mi West 5.8 mph - N/A   Clear